UAL1258 KEGE-KDEN

Flight info

Callsign UAL1258
Flight time 0h 32m
Altitude 23000
Route GYPSM6 RLG LONGZ LONGZ3
Aircraft A20N/M-SDE2E3FGHIRWXY/LB1

Departure

Time 2026-05-09 04:31
Airport Eagle County Regional Airport (KEGE)

Arrival

Time 2026-05-09 05:03
Airport Denver International Airport (KDEN)
Time Latitude Longitude Altitude Speed Heading
2026-05-09 04:07 39.64061 -106.91490 6487 ft 0 kts 171°
2026-05-09 04:21 39.64068 -106.91492 6486 ft 2 kts 169°
2026-05-09 04:21 39.64102 -106.91504 6485 ft 2 kts 143°
2026-05-09 04:22 39.64115 -106.91521 6485 ft 3 kts 120°
2026-05-09 04:22 39.64121 -106.91540 6486 ft 0 kts 89°
2026-05-09 04:23 39.64121 -106.91530 6485 ft 3 kts 91°
2026-05-09 04:24 39.64127 -106.91407 6490 ft 20 kts 83°
2026-05-09 04:24 39.64170 -106.91251 6496 ft 17 kts 44°
2026-05-09 04:24 39.64218 -106.91128 6501 ft 14 kts 78°
2026-05-09 04:24 39.64231 -106.91012 6505 ft 12 kts 81°
2026-05-09 04:25 39.64243 -106.90909 6508 ft 12 kts 82°
2026-05-09 04:25 39.64256 -106.90781 6513 ft 26 kts 82°
2026-05-09 04:25 39.64284 -106.90532 6522 ft 27 kts 82°
2026-05-09 04:25 39.64307 -106.90311 6530 ft 23 kts 81°
2026-05-09 04:26 39.64325 -106.90153 6540 ft 0 kts 82°
2026-05-09 04:26 39.64327 -106.90130 6537 ft 10 kts 82°
2026-05-09 04:26 39.64342 -106.90043 6539 ft 6 kts 64°
2026-05-09 04:26 39.64342 -106.90041 6540 ft 0 kts 62°
2026-05-09 04:29 39.64348 -106.90033 6540 ft 4 kts 47°
2026-05-09 04:29 39.64398 -106.90014 6541 ft 11 kts 357°
2026-05-09 04:29 39.64441 -106.90084 6541 ft 11 kts 265°
2026-05-09 04:29 39.64438 -106.90120 6539 ft 0 kts 263°
2026-05-09 04:30 39.64435 -106.90153 6538 ft 25 kts 262°
2026-05-09 04:30 39.64373 -106.90727 6515 ft 102 kts 261°
2026-05-09 04:30 39.64242 -106.91919 6470 ft 161 kts 262°
2026-05-09 04:30 39.64091 -106.93512 6770 ft 182 kts 268°
2026-05-09 04:31 39.64142 -106.95124 7535 ft 181 kts 268°
2026-05-09 04:31 39.63943 -106.96774 8110 ft 193 kts 260°
2026-05-09 04:31 39.63743 -106.98544 8589 ft 201 kts 262°
2026-05-09 04:31 39.63532 -107.00373 9102 ft 208 kts 256°
2026-05-09 04:32 39.62819 -107.02005 9616 ft 212 kts 229°
2026-05-09 04:32 39.61814 -107.03442 10129 ft 218 kts 227°
2026-05-09 04:32 39.60774 -107.04904 10635 ft 223 kts 227°
2026-05-09 04:32 39.59703 -107.06410 11127 ft 231 kts 227°
2026-05-09 04:33 39.58611 -107.07962 11510 ft 241 kts 231°
2026-05-09 04:33 39.57837 -107.09935 11815 ft 252 kts 260°
2026-05-09 04:33 39.57909 -107.12228 12210 ft 261 kts 289°
2026-05-09 04:33 39.58841 -107.14274 12602 ft 270 kts 313°
2026-05-09 04:34 39.60332 -107.15752 12982 ft 279 kts 336°
2026-05-09 04:34 39.62249 -107.16274 13369 ft 289 kts
2026-05-09 04:34 39.64221 -107.15627 13754 ft 300 kts 28°
2026-05-09 04:34 39.65852 -107.13893 14137 ft 310 kts 53°
2026-05-09 04:35 39.66949 -107.11445 14605 ft 318 kts 65°
2026-05-09 04:35 39.67897 -107.08826 15066 ft 321 kts 64°
2026-05-09 04:35 39.68914 -107.06228 15512 ft 323 kts 62°
2026-05-09 04:35 39.70018 -107.03707 15958 ft 326 kts 59°
2026-05-09 04:36 39.71210 -107.01183 16411 ft 328 kts 58°
2026-05-09 04:36 39.72445 -106.98666 16860 ft 330 kts 57°
2026-05-09 04:36 39.73697 -106.96147 17316 ft 333 kts 57°
2026-05-09 04:36 39.74964 -106.93602 17767 ft 337 kts 57°
2026-05-09 04:37 39.76230 -106.91056 18266 ft 340 kts 57°
2026-05-09 04:37 39.77518 -106.88458 18796 ft 342 kts 57°
2026-05-09 04:37 39.78811 -106.85846 19319 ft 344 kts 57°
2026-05-09 04:37 39.80109 -106.83219 19848 ft 345 kts 57°
2026-05-09 04:38 39.81407 -106.80589 20376 ft 345 kts 57°
2026-05-09 04:38 39.82690 -106.77987 20895 ft 346 kts 57°
2026-05-09 04:38 39.83993 -106.75342 21417 ft 346 kts 57°
2026-05-09 04:38 39.85295 -106.72697 21947 ft 346 kts 57°
2026-05-09 04:39 39.86597 -106.70049 22435 ft 347 kts 57°
2026-05-09 04:39 39.87905 -106.67386 22824 ft 352 kts 57°
2026-05-09 04:39 39.89226 -106.64696 22975 ft 363 kts 57°
2026-05-09 04:39 39.90625 -106.61843 23002 ft 378 kts 57°
2026-05-09 04:40 39.92069 -106.58894 23000 ft 391 kts 57°
2026-05-09 04:40 39.93525 -106.55920 22999 ft 394 kts 57°
2026-05-09 04:40 39.94999 -106.52903 23000 ft 392 kts 57°
2026-05-09 04:40 39.96468 -106.49896 23000 ft 393 kts 57°
2026-05-09 04:41 39.97939 -106.46882 23000 ft 394 kts 57°
2026-05-09 04:41 39.99411 -106.43863 23000 ft 395 kts 57°
2026-05-09 04:41 40.00881 -106.40842 23000 ft 394 kts 57°
2026-05-09 04:41 40.02329 -106.37868 23000 ft 392 kts 57°
2026-05-09 04:42 40.03791 -106.34858 23000 ft 393 kts 57°
2026-05-09 04:42 40.05248 -106.31857 22862 ft 389 kts 57°
2026-05-09 04:42 40.06692 -106.28881 22340 ft 386 kts 57°
2026-05-09 04:42 40.08125 -106.25924 21692 ft 384 kts 57°
2026-05-09 04:43 40.09552 -106.22976 20994 ft 380 kts 57°
2026-05-09 04:43 40.10945 -106.20097 20317 ft 377 kts 57°
2026-05-09 04:43 40.12342 -106.17205 19615 ft 373 kts 57°
2026-05-09 04:43 40.13728 -106.14334 18894 ft 371 kts 57°
2026-05-09 04:44 40.15090 -106.11511 18407 ft 364 kts 57°
2026-05-09 04:44 40.16445 -106.08699 18240 ft 366 kts 58°
2026-05-09 04:44 40.17789 -106.05907 18186 ft 369 kts 58°
2026-05-09 04:44 40.19161 -106.03054 18127 ft 369 kts 58°
2026-05-09 04:45 40.20521 -106.00224 18048 ft 366 kts 58°
2026-05-09 04:45 40.21875 -105.97404 17971 ft 365 kts 58°
2026-05-09 04:45 40.23210 -105.94621 17896 ft 365 kts 58°
2026-05-09 04:45 40.24560 -105.91805 17824 ft 365 kts 58°
2026-05-09 04:46 40.25912 -105.88982 17749 ft 365 kts 58°
2026-05-09 04:46 40.26805 -105.87115 17698 ft 364 kts 58°
2026-05-09 04:46 40.28146 -105.84310 17496 ft 363 kts 58°
2026-05-09 04:46 40.29488 -105.81501 17271 ft 362 kts 58°
2026-05-09 04:47 40.31256 -105.77796 16994 ft 361 kts 58°
2026-05-09 04:47 40.32153 -105.75914 16953 ft 360 kts 58°
2026-05-09 04:47 40.33479 -105.73131 16954 ft 361 kts 58°
2026-05-09 04:47 40.34796 -105.70364 16950 ft 361 kts 58°
2026-05-09 04:48 40.36123 -105.67573 16953 ft 359 kts 58°
2026-05-09 04:48 40.37406 -105.64765 16946 ft 358 kts 65°
2026-05-09 04:48 40.38127 -105.61650 16946 ft 359 kts 83°
2026-05-09 04:48 40.38045 -105.58382 16950 ft 360 kts 101°
2026-05-09 04:49 40.37530 -105.55164 16906 ft 356 kts 102°
2026-05-09 04:49 40.37028 -105.52088 16792 ft 342 kts 102°
2026-05-09 04:49 40.36543 -105.49102 16533 ft 330 kts 102°
2026-05-09 04:49 40.36069 -105.46180 16115 ft 323 kts 102°
2026-05-09 04:50 40.35599 -105.43269 15986 ft 328 kts 102°
2026-05-09 04:50 40.35124 -105.40332 15953 ft 330 kts 102°
2026-05-09 04:50 40.34649 -105.37392 15945 ft 328 kts 102°
2026-05-09 04:50 40.34190 -105.34454 15705 ft 329 kts 101°
2026-05-09 04:51 40.33793 -105.31530 15357 ft 322 kts 99°
2026-05-09 04:51 40.33421 -105.28645 14981 ft 320 kts 99°
2026-05-09 04:51 40.33050 -105.25792 14638 ft 319 kts 99°
2026-05-09 04:51 40.32672 -105.22935 14477 ft 317 kts 100°
2026-05-09 04:52 40.32289 -105.20086 14316 ft 318 kts 100°
2026-05-09 04:52 40.31904 -105.17242 14115 ft 316 kts 100°
2026-05-09 04:52 40.31518 -105.14409 13914 ft 313 kts 100°
2026-05-09 04:52 40.31142 -105.11660 13701 ft 299 kts 100°
2026-05-09 04:53 40.30788 -105.09070 13499 ft 285 kts 100°
2026-05-09 04:53 40.30446 -105.06579 13288 ft 270 kts 100°
2026-05-09 04:53 40.30121 -105.04210 13082 ft 264 kts 100°
2026-05-09 04:53 40.29784 -105.01760 12959 ft 275 kts 100°
2026-05-09 04:54 40.29450 -104.99334 12926 ft 273 kts 100°
2026-05-09 04:54 40.29113 -104.96892 12772 ft 271 kts 100°
2026-05-09 04:54 40.28778 -104.94464 12440 ft 270 kts 100°
2026-05-09 04:54 40.28444 -104.92044 12086 ft 268 kts 100°
2026-05-09 04:55 40.28115 -104.89650 11960 ft 268 kts 100°
2026-05-09 04:55 40.27781 -104.87228 11822 ft 271 kts 100°
2026-05-09 04:55 40.27447 -104.84810 11669 ft 268 kts 100°
2026-05-09 04:55 40.27115 -104.82414 11520 ft 267 kts 100°
2026-05-09 04:56 40.26783 -104.80015 11370 ft 267 kts 100°
2026-05-09 04:56 40.26437 -104.77619 11218 ft 267 kts 104°
2026-05-09 04:56 40.25843 -104.75361 11073 ft 266 kts 115°
2026-05-09 04:56 40.25051 -104.73166 10960 ft 265 kts 115°
2026-05-09 04:57 40.24078 -104.71134 10954 ft 265 kts 134°
2026-05-09 04:57 40.22624 -104.69671 10937 ft 264 kts 152°
2026-05-09 04:57 40.20938 -104.68763 10731 ft 261 kts 167°
2026-05-09 04:57 40.19150 -104.68441 10571 ft 260 kts 178°
2026-05-09 04:58 40.17347 -104.68388 10458 ft 262 kts 180°
2026-05-09 04:58 40.15516 -104.68397 10216 ft 263 kts 181°
2026-05-09 04:58 40.13699 -104.68416 9918 ft 259 kts 181°
2026-05-09 04:58 40.11897 -104.68436 9602 ft 258 kts 181°
2026-05-09 04:59 40.10103 -104.68456 9281 ft 257 kts 181°
2026-05-09 04:59 40.08310 -104.68476 8948 ft 256 kts 181°
2026-05-09 04:59 40.06532 -104.68495 8612 ft 254 kts 181°
2026-05-09 04:59 40.04809 -104.68514 8276 ft 247 kts 181°
2026-05-09 05:00 40.03114 -104.68533 7953 ft 238 kts 181°
2026-05-09 05:00 40.01484 -104.68551 7640 ft 230 kts 181°
2026-05-09 05:00 39.99921 -104.68569 7397 ft 217 kts 181°
2026-05-09 05:00 39.98438 -104.68586 7074 ft 208 kts 181°
2026-05-09 05:01 39.97043 -104.68601 6800 ft 196 kts 181°
2026-05-09 05:01 39.95726 -104.68616 6563 ft 181 kts 181°
2026-05-09 05:01 39.94515 -104.68630 6313 ft 165 kts 181°
2026-05-09 05:01 39.93413 -104.68642 6095 ft 156 kts 181°
2026-05-09 05:02 39.92267 -104.68656 5893 ft 168 kts 181°
2026-05-09 05:02 39.91120 -104.68669 5668 ft 166 kts 181°
2026-05-09 05:02 39.89959 -104.68685 5445 ft 166 kts 181°
2026-05-09 05:02 39.88834 -104.68697 5359 ft 152 kts 181°
2026-05-09 05:03 39.88032 -104.68698 5363 ft 60 kts 180°
2026-05-09 05:03 39.87766 -104.68657 5365 ft 34 kts 161°
2026-05-09 05:03 39.87626 -104.68565 5362 ft 0 kts 152°
2026-05-09 05:04 39.87623 -104.68563 5362 ft 2 kts 152°
2026-05-09 05:04 39.87601 -104.68549 5362 ft 5 kts 153°
2026-05-09 05:04 39.87567 -104.68526 5361 ft 6 kts 153°
2026-05-09 05:04 39.87488 -104.68497 5360 ft 16 kts 173°
2026-05-09 05:05 39.87363 -104.68497 5358 ft 20 kts 178°
2026-05-09 05:05 39.87222 -104.68495 5358 ft 20 kts 181°
2026-05-09 05:05 39.87082 -104.68501 5359 ft 20 kts 182°
2026-05-09 05:05 39.86944 -104.68504 5359 ft 20 kts 176°
2026-05-09 05:06 39.86810 -104.68492 5361 ft 18 kts 176°
2026-05-09 05:06 39.86695 -104.68506 5364 ft 14 kts 192°
2026-05-09 05:06 39.86592 -104.68504 5364 ft 16 kts 186°
2026-05-09 05:06 39.86479 -104.68506 5365 ft 16 kts 181°
2026-05-09 05:07 39.86363 -104.68510 5366 ft 17 kts 182°
2026-05-09 05:07 39.86234 -104.68516 5364 ft 20 kts 181°
2026-05-09 05:07 39.86138 -104.68423 5365 ft 18 kts 105°
2026-05-09 05:07 39.86137 -104.68272 5364 ft 16 kts 87°
2026-05-09 05:08 39.86139 -104.68118 5369 ft 22 kts 92°
2026-05-09 05:08 39.86134 -104.67902 5369 ft 24 kts 90°
2026-05-09 05:08 39.86132 -104.67666 5373 ft 28 kts 92°
2026-05-09 05:08 39.86124 -104.67416 5372 ft 27 kts 93°
2026-05-09 05:09 39.86119 -104.67208 5376 ft 12 kts 96°
2026-05-09 05:09 39.86096 -104.67103 5373 ft 12 kts 118°
2026-05-09 05:09 39.86031 -104.67045 5376 ft 12 kts 159°
2026-05-09 05:09 39.85952 -104.67032 5378 ft 11 kts 179°
2026-05-09 05:10 39.85932 -104.67032 5378 ft 0 kts 179°